FDX117 KSAN-KSEA

Flight info

Callsign FDX117
Flight time 2h 13m
Altitude 36000
Route PADRZ2 EHF SHIMR LKV HAWKZ8
Aircraft B77F/H-VGDW/C

Departure

Time 2026-04-26 03:26
Airport San Diego International Airport (KSAN)

Arrival

Time 2026-04-26 05:39
Airport Seattle–Tacoma International Airport (KSEA)
Time Latitude Longitude Altitude Speed Heading
2026-04-26 03:08 32.73661 -117.18502 28 ft 0 kts 354°
2026-04-26 03:15 32.73660 -117.18502 28 ft 1 kts 354°
2026-04-26 03:15 32.73647 -117.18500 28 ft 3 kts 358°
2026-04-26 03:15 32.73627 -117.18501 28 ft 3 kts 11°
2026-04-26 03:15 32.73609 -117.18506 28 ft 3 kts 33°
2026-04-26 03:16 32.73599 -117.18516 28 ft 3 kts 71°
2026-04-26 03:16 32.73595 -117.18519 28 ft 3 kts 121°
2026-04-26 03:16 32.73595 -117.18521 28 ft 0 kts 142°
2026-04-26 03:19 32.73592 -117.18518 28 ft 4 kts 142°
2026-04-26 03:19 32.73544 -117.18476 28 ft 12 kts 144°
2026-04-26 03:19 32.73461 -117.18406 28 ft 14 kts 147°
2026-04-26 03:20 32.73374 -117.18402 28 ft 12 kts 193°
2026-04-26 03:20 32.73330 -117.18380 28 ft 7 kts 111°
2026-04-26 03:20 32.73304 -117.18281 28 ft 19 kts 106°
2026-04-26 03:20 32.73279 -117.18177 28 ft 10 kts 105°
2026-04-26 03:21 32.73252 -117.18065 28 ft 20 kts 106°
2026-04-26 03:21 32.73211 -117.17896 28 ft 18 kts 106°
2026-04-26 03:21 32.73183 -117.17779 28 ft 13 kts 106°
2026-04-26 03:21 32.73152 -117.17651 28 ft 18 kts 106°
2026-04-26 03:22 32.73120 -117.17570 28 ft 4 kts 143°
2026-04-26 03:22 32.73115 -117.17566 28 ft 0 kts 143°
2026-04-26 03:23 32.73109 -117.17561 28 ft 4 kts 143°
2026-04-26 03:23 32.73050 -117.17535 28 ft 13 kts 189°
2026-04-26 03:23 32.73021 -117.17575 28 ft 6 kts 276°
2026-04-26 03:24 32.73024 -117.17592 28 ft 0 kts 285°
2026-04-26 03:25 32.73038 -117.17653 28 ft 28 kts 285°
2026-04-26 03:25 32.73153 -117.18126 29 ft 91 kts 286°
2026-04-26 03:25 32.73383 -117.19074 29 ft 147 kts 287°
2026-04-26 03:26 32.73705 -117.20386 366 ft 170 kts 286°
2026-04-26 03:26 32.74144 -117.21689 1113 ft 176 kts 299°
2026-04-26 03:26 32.74807 -117.22884 1833 ft 169 kts 302°
2026-04-26 03:26 32.75487 -117.24092 2200 ft 187 kts 302°
2026-04-26 03:27 32.76264 -117.25437 2378 ft 213 kts 302°
2026-04-26 03:27 32.76982 -117.27117 2557 ft 240 kts 289°
2026-04-26 03:27 32.77488 -117.29053 3087 ft 253 kts 285°
2026-04-26 03:27 32.77935 -117.31061 4078 ft 249 kts 283°
2026-04-26 03:28 32.78463 -117.33031 4877 ft 255 kts 292°
2026-04-26 03:28 32.79397 -117.34841 5671 ft 260 kts 305°
2026-04-26 03:28 32.80559 -117.36500 6465 ft 263 kts 306°
2026-04-26 03:28 32.81744 -117.38172 7244 ft 265 kts 307°
2026-04-26 03:29 32.82944 -117.39853 7996 ft 268 kts 307°
2026-04-26 03:29 32.84157 -117.41554 8745 ft 271 kts 306°
2026-04-26 03:29 32.85381 -117.43272 9462 ft 274 kts 306°
2026-04-26 03:29 32.86625 -117.45001 10182 ft 276 kts 306°
2026-04-26 03:30 32.87901 -117.46783 10640 ft 290 kts 305°
2026-04-26 03:30 32.89240 -117.48664 11082 ft 306 kts 305°
2026-04-26 03:30 32.90653 -117.50656 11524 ft 323 kts 305°
2026-04-26 03:30 32.92142 -117.52760 11954 ft 341 kts 305°
2026-04-26 03:31 32.93692 -117.54956 12583 ft 352 kts 304°
2026-04-26 03:31 32.95271 -117.57194 13247 ft 362 kts 304°
2026-04-26 03:31 32.96906 -117.59513 14013 ft 369 kts 304°
2026-04-26 03:31 32.98564 -117.61867 14837 ft 374 kts 304°
2026-04-26 03:32 33.00242 -117.64249 15671 ft 377 kts 304°
2026-04-26 03:32 33.01935 -117.66656 16480 ft 381 kts 303°
2026-04-26 03:32 33.03651 -117.69091 17269 ft 385 kts 303°
2026-04-26 03:32 33.05398 -117.71532 18028 ft 391 kts 305°
2026-04-26 03:33 33.07323 -117.73871 18742 ft 399 kts 309°
2026-04-26 03:33 33.09404 -117.76112 19441 ft 407 kts 311°
2026-04-26 03:33 33.11588 -117.78296 20127 ft 412 kts 313°
2026-04-26 03:33 33.13804 -117.80501 20789 ft 417 kts 311°
2026-04-26 03:34 33.16023 -117.82755 21424 ft 421 kts 311°
2026-04-26 03:34 33.18261 -117.85037 22033 ft 426 kts 311°
2026-04-26 03:34 33.20523 -117.87350 22621 ft 431 kts 311°
2026-04-26 03:34 33.22857 -117.89654 23185 ft 438 kts 312°
2026-04-26 03:35 33.25242 -117.91951 23801 ft 442 kts 312°
2026-04-26 03:35 33.27646 -117.94275 24372 ft 446 kts 312°
2026-04-26 03:35 33.30065 -117.96629 24961 ft 450 kts 311°
2026-04-26 03:35 33.32501 -117.99007 25539 ft 454 kts 311°
2026-04-26 03:36 33.34962 -118.01387 26161 ft 456 kts 312°
2026-04-26 03:36 33.37428 -118.03783 26789 ft 458 kts 312°
2026-04-26 03:36 33.39902 -118.06202 27302 ft 462 kts 312°
2026-04-26 03:36 33.42399 -118.08654 27829 ft 465 kts 312°
2026-04-26 03:37 33.44904 -118.11117 28335 ft 469 kts 312°
2026-04-26 03:37 33.47439 -118.13612 28821 ft 473 kts 311°
2026-04-26 03:37 33.49987 -118.16122 29288 ft 476 kts 312°
2026-04-26 03:37 33.52550 -118.18649 29819 ft 477 kts 311°
2026-04-26 03:38 33.55121 -118.21132 30545 ft 475 kts 313°
2026-04-26 03:38 33.57783 -118.23490 31129 ft 479 kts 317°
2026-04-26 03:38 33.60656 -118.25565 31741 ft 485 kts 323°
2026-04-26 03:38 33.63677 -118.27301 32271 ft 490 kts 327°
2026-04-26 03:39 33.66823 -118.28892 32752 ft 492 kts 328°
2026-04-26 03:39 33.70025 -118.30475 33271 ft 489 kts 328°
2026-04-26 03:39 33.73080 -118.32094 33831 ft 484 kts 326°
2026-04-26 03:39 33.76169 -118.33825 34223 ft 483 kts 324°
2026-04-26 03:40 33.79200 -118.35504 34566 ft 488 kts 327°
2026-04-26 03:40 33.82335 -118.37058 35054 ft 487 kts 329°
2026-04-26 03:40 33.85478 -118.38563 35562 ft 484 kts 328°
2026-04-26 03:40 33.88587 -118.40097 35918 ft 484 kts 328°
2026-04-26 03:41 33.94816 -118.43249 35971 ft 485 kts 328°
2026-04-26 03:41 34.01196 -118.45921 35969 ft 491 kts 338°
2026-04-26 03:42 34.07981 -118.47300 35960 ft 498 kts 344°
2026-04-26 03:42 34.14892 -118.48291 35956 ft 503 kts 345°
2026-04-26 03:43 34.21859 -118.49322 35941 ft 506 kts 345°
2026-04-26 03:43 34.28845 -118.50389 35940 ft 505 kts 345°
2026-04-26 03:44 34.35822 -118.51463 35937 ft 504 kts 345°
2026-04-26 03:44 34.42774 -118.52531 35945 ft 503 kts 345°
2026-04-26 03:45 34.49725 -118.53606 35936 ft 503 kts 345°
2026-04-26 03:45 34.56667 -118.54682 35927 ft 503 kts 345°
2026-04-26 03:46 34.63574 -118.55755 35920 ft 503 kts 346°
2026-04-26 03:47 34.73986 -118.57370 35912 ft 503 kts 346°
2026-04-26 03:47 34.80920 -118.58452 35911 ft 502 kts 346°
2026-04-26 03:48 34.87844 -118.59536 35912 ft 502 kts 346°
2026-04-26 03:48 34.94773 -118.60622 35913 ft 502 kts 346°
2026-04-26 03:49 35.01509 -118.62440 35914 ft 490 kts 332°
2026-04-26 03:49 35.04538 -118.64283 35913 ft 483 kts 320°
2026-04-26 03:49 35.07188 -118.66750 35918 ft 477 kts 312°
2026-04-26 03:50 35.11999 -118.72253 35913 ft 470 kts 311°
2026-04-26 03:50 35.16881 -118.77537 35912 ft 469 kts 313°
2026-04-26 03:51 35.21904 -118.82646 35910 ft 471 kts 314°
2026-04-26 03:51 35.26971 -118.87743 35911 ft 472 kts 314°
2026-04-26 03:52 35.31995 -118.92842 35909 ft 472 kts 314°
2026-04-26 03:52 35.37039 -118.98008 35909 ft 472 kts 314°
2026-04-26 03:53 35.42080 -119.03181 35910 ft 473 kts 314°
2026-04-26 03:53 35.47207 -119.08252 35910 ft 476 kts 320°
2026-04-26 03:54 35.53178 -119.11872 35914 ft 485 kts 336°
2026-04-26 03:54 35.59746 -119.14080 35920 ft 492 kts 341°
2026-04-26 03:55 35.66352 -119.16149 35926 ft 493 kts 340°
2026-04-26 03:55 35.72978 -119.18397 35929 ft 493 kts 339°
2026-04-26 03:56 35.79571 -119.20707 35930 ft 492 kts 339°
2026-04-26 03:56 35.86152 -119.23016 35929 ft 491 kts 339°
2026-04-26 03:57 35.92724 -119.25330 35929 ft 491 kts 339°
2026-04-26 03:57 35.99297 -119.27659 35928 ft 491 kts 339°
2026-04-26 03:58 36.05862 -119.29992 35930 ft 491 kts 340°
2026-04-26 03:58 36.12440 -119.32330 35929 ft 492 kts 340°
2026-04-26 03:59 36.19016 -119.34674 35930 ft 492 kts 340°
2026-04-26 03:59 36.25594 -119.37022 35930 ft 492 kts 340°
2026-04-26 04:00 36.32125 -119.39359 35930 ft 491 kts 340°
2026-04-26 04:00 36.38692 -119.41713 35930 ft 491 kts 340°
2026-04-26 04:01 36.45268 -119.44074 35929 ft 491 kts 340°
2026-04-26 04:01 36.51842 -119.46438 35929 ft 492 kts 340°
2026-04-26 04:02 36.58419 -119.48808 35928 ft 492 kts 340°
2026-04-26 04:02 36.64987 -119.51179 35928 ft 491 kts 340°
2026-04-26 04:03 36.71555 -119.53554 35928 ft 491 kts 340°
2026-04-26 04:03 36.78124 -119.55933 35931 ft 492 kts 340°
2026-04-26 04:04 36.83588 -119.57916 35929 ft 492 kts 340°
2026-04-26 04:04 36.90166 -119.60307 35929 ft 492 kts 340°
2026-04-26 04:05 36.97812 -119.63090 35928 ft 492 kts 340°
2026-04-26 04:05 37.03324 -119.65101 35923 ft 492 kts 340°
2026-04-26 04:06 37.09901 -119.67505 35920 ft 493 kts 340°
2026-04-26 04:06 37.16485 -119.69915 35916 ft 493 kts 340°
2026-04-26 04:07 37.23064 -119.72328 35916 ft 493 kts 340°
2026-04-26 04:07 37.29604 -119.74731 35920 ft 493 kts 341°
2026-04-26 04:08 37.36188 -119.77154 35914 ft 493 kts 341°
2026-04-26 04:08 37.42769 -119.79580 35910 ft 493 kts 341°
2026-04-26 04:09 37.49370 -119.82019 35907 ft 494 kts 341°
2026-04-26 04:09 37.55968 -119.84461 35903 ft 494 kts 341°
2026-04-26 04:10 37.62568 -119.86908 35899 ft 494 kts 341°
2026-04-26 04:10 37.69159 -119.89359 35904 ft 494 kts 341°
2026-04-26 04:11 37.75759 -119.91813 35896 ft 494 kts 341°
2026-04-26 04:11 37.82356 -119.94273 35893 ft 494 kts 341°
2026-04-26 04:12 37.88946 -119.96735 35890 ft 494 kts 341°
2026-04-26 04:12 37.95548 -119.99195 35889 ft 494 kts 341°
2026-04-26 04:13 38.02141 -120.01664 35887 ft 494 kts 341°
2026-04-26 04:13 38.08737 -120.04147 35884 ft 494 kts 341°
2026-04-26 04:14 38.15285 -120.06617 35883 ft 494 kts 341°
2026-04-26 04:14 38.21881 -120.09062 35882 ft 494 kts 344°
2026-04-26 04:15 38.28682 -120.10449 35883 ft 496 kts 352°
2026-04-26 04:15 38.35574 -120.11042 35881 ft 497 kts 355°
2026-04-26 04:16 38.42484 -120.11495 35878 ft 497 kts 355°
2026-04-26 04:16 38.49386 -120.12057 35878 ft 496 kts 354°
2026-04-26 04:17 38.56264 -120.12665 35875 ft 495 kts 354°
2026-04-26 04:17 38.63134 -120.13282 35862 ft 495 kts 354°
2026-04-26 04:18 38.70000 -120.13906 35857 ft 494 kts 354°
2026-04-26 04:18 38.76854 -120.14533 35852 ft 493 kts 353°
2026-04-26 04:19 38.83701 -120.15162 35848 ft 492 kts 353°
2026-04-26 04:19 38.90530 -120.15791 35846 ft 492 kts 353°
2026-04-26 04:20 38.97355 -120.16422 35851 ft 491 kts 353°
2026-04-26 04:20 39.04122 -120.17048 35856 ft 490 kts 353°
2026-04-26 04:21 39.10938 -120.17681 35863 ft 490 kts 353°
2026-04-26 04:21 39.17736 -120.18312 35869 ft 490 kts 353°
2026-04-26 04:22 39.24533 -120.18944 35870 ft 489 kts 353°
2026-04-26 04:22 39.31281 -120.19573 35870 ft 489 kts 353°
2026-04-26 04:23 39.38063 -120.20207 35867 ft 489 kts 353°
2026-04-26 04:23 39.44852 -120.20843 35861 ft 488 kts 353°
2026-04-26 04:24 39.51646 -120.21480 35865 ft 488 kts 352°
2026-04-26 04:24 39.58426 -120.22117 35867 ft 488 kts 352°
2026-04-26 04:25 39.65216 -120.22757 35864 ft 488 kts 352°
2026-04-26 04:25 39.71956 -120.23393 35860 ft 488 kts 352°
2026-04-26 04:26 39.78731 -120.24034 35854 ft 488 kts 352°
2026-04-26 04:26 39.85507 -120.24676 35846 ft 488 kts 352°
2026-04-26 04:27 39.92284 -120.25318 35838 ft 488 kts 352°
2026-04-26 04:27 39.99058 -120.25963 35830 ft 488 kts 352°
2026-04-26 04:28 40.05834 -120.26608 35822 ft 488 kts 352°
2026-04-26 04:28 40.12606 -120.27255 35808 ft 488 kts 352°
2026-04-26 04:29 40.19375 -120.27903 35804 ft 487 kts 352°
2026-04-26 04:29 40.26104 -120.28548 35803 ft 488 kts 352°
2026-04-26 04:30 40.32875 -120.29200 35801 ft 487 kts 352°
2026-04-26 04:30 40.39635 -120.29849 35799 ft 487 kts 352°
2026-04-26 04:31 40.46393 -120.30501 35798 ft 487 kts 352°
2026-04-26 04:31 40.53153 -120.31154 35799 ft 486 kts 352°
2026-04-26 04:32 40.59907 -120.31808 35798 ft 486 kts 352°
2026-04-26 04:32 40.66655 -120.32463 35798 ft 486 kts 352°
2026-04-26 04:33 40.73358 -120.33115 35798 ft 486 kts 352°
2026-04-26 04:33 40.80100 -120.33771 35798 ft 485 kts 352°
2026-04-26 04:34 40.86830 -120.34428 35798 ft 485 kts 352°
2026-04-26 04:34 40.93563 -120.35089 35799 ft 484 kts 352°
2026-04-26 04:35 41.00295 -120.35748 35804 ft 484 kts 351°
2026-04-26 04:35 41.06977 -120.36404 35805 ft 484 kts 351°
2026-04-26 04:36 41.13714 -120.37067 35806 ft 484 kts 351°
2026-04-26 04:36 41.20444 -120.37730 35808 ft 484 kts 351°
2026-04-26 04:37 41.27170 -120.38395 35808 ft 484 kts 351°
2026-04-26 04:37 41.33891 -120.39061 35809 ft 484 kts 351°
2026-04-26 04:38 41.40606 -120.39727 35810 ft 484 kts 351°
2026-04-26 04:38 41.47321 -120.40395 35809 ft 484 kts 351°
2026-04-26 04:39 41.54004 -120.41061 35809 ft 484 kts 351°
2026-04-26 04:39 41.60718 -120.41732 35809 ft 484 kts 351°
2026-04-26 04:40 41.67438 -120.42404 35808 ft 484 kts 351°
2026-04-26 04:40 41.74165 -120.43079 35806 ft 484 kts 351°
2026-04-26 04:41 41.80885 -120.43754 35805 ft 484 kts 351°
2026-04-26 04:41 41.87606 -120.44431 35803 ft 484 kts 350°
2026-04-26 04:42 41.94329 -120.45109 35801 ft 485 kts 350°
2026-04-26 04:42 42.01054 -120.45790 35801 ft 484 kts 350°
2026-04-26 04:43 42.07770 -120.46470 35800 ft 483 kts 351°
2026-04-26 04:43 42.14471 -120.47151 35800 ft 483 kts 351°
2026-04-26 04:44 42.21169 -120.47830 35800 ft 483 kts 351°
2026-04-26 04:44 42.27867 -120.48512 35800 ft 482 kts 351°
2026-04-26 04:45 42.34560 -120.49198 35801 ft 482 kts 351°
2026-04-26 04:45 42.41243 -120.49884 35803 ft 481 kts 351°
2026-04-26 04:46 42.47895 -120.50742 35805 ft 478 kts 346°
2026-04-26 04:46 42.54153 -120.53339 35806 ft 472 kts 333°
2026-04-26 04:47 42.60098 -120.57017 35808 ft 467 kts 330°
2026-04-26 04:47 42.65985 -120.60755 35807 ft 466 kts 331°
2026-04-26 04:48 42.74857 -120.66223 35810 ft 466 kts 332°
2026-04-26 04:48 42.80781 -120.69850 35812 ft 466 kts 332°
2026-04-26 04:49 42.86680 -120.73421 35815 ft 467 kts 333°
2026-04-26 04:49 42.92610 -120.77034 35818 ft 466 kts 333°
2026-04-26 04:50 42.98530 -120.80658 35822 ft 466 kts 333°
2026-04-26 04:50 43.03444 -120.83675 35825 ft 466 kts 333°
2026-04-26 04:51 43.10321 -120.87905 35830 ft 465 kts 333°
2026-04-26 04:51 43.16231 -120.91550 35835 ft 465 kts 333°
2026-04-26 04:52 43.21171 -120.94604 35839 ft 465 kts 333°
2026-04-26 04:52 43.27026 -120.98229 35845 ft 465 kts 333°
2026-04-26 04:53 43.32922 -121.01887 35851 ft 465 kts 333°
2026-04-26 04:53 43.38813 -121.05553 35857 ft 464 kts 333°
2026-04-26 04:54 43.44702 -121.09221 35863 ft 464 kts 333°
2026-04-26 04:54 43.50590 -121.12887 35869 ft 464 kts 334°
2026-04-26 04:55 43.56436 -121.16527 35870 ft 463 kts 333°
2026-04-26 04:55 43.62309 -121.20219 35873 ft 463 kts 333°
2026-04-26 04:56 43.68175 -121.23917 35872 ft 463 kts 333°
2026-04-26 04:56 43.74033 -121.27615 35876 ft 462 kts 334°
2026-04-26 04:57 43.79892 -121.31319 35881 ft 462 kts 334°
2026-04-26 04:57 43.85744 -121.35024 35884 ft 462 kts 334°
2026-04-26 04:58 43.91548 -121.38714 35887 ft 462 kts 334°
2026-04-26 04:58 43.97391 -121.42440 35884 ft 461 kts 334°
2026-04-26 04:59 44.03217 -121.46165 35875 ft 461 kts 334°
2026-04-26 04:59 44.09036 -121.49892 35866 ft 460 kts 334°
2026-04-26 05:00 44.14861 -121.53586 35867 ft 460 kts 334°
2026-04-26 05:00 44.20679 -121.57297 35862 ft 460 kts 334°
2026-04-26 05:01 44.26498 -121.61028 35860 ft 460 kts 334°
2026-04-26 05:01 44.31769 -121.64420 35876 ft 460 kts 334°
2026-04-26 05:02 44.37583 -121.68169 35873 ft 461 kts 334°
2026-04-26 05:02 44.43374 -121.71913 35842 ft 461 kts 334°
2026-04-26 05:03 44.49192 -121.75682 35839 ft 460 kts 334°
2026-04-26 05:03 44.55006 -121.79458 35839 ft 460 kts 334°
2026-04-26 05:04 44.60821 -121.83242 35840 ft 461 kts 334°
2026-04-26 05:04 44.66632 -121.87032 35840 ft 461 kts 334°
2026-04-26 05:05 44.72446 -121.90832 35839 ft 461 kts 334°
2026-04-26 05:05 44.78262 -121.94643 35839 ft 461 kts 334°
2026-04-26 05:06 44.84080 -121.98463 35839 ft 461 kts 334°
2026-04-26 05:06 44.89895 -122.02290 35838 ft 460 kts 334°
2026-04-26 05:07 44.95682 -122.06107 35832 ft 458 kts 334°
2026-04-26 05:07 45.01459 -122.09917 35831 ft 458 kts 335°
2026-04-26 05:08 45.07207 -122.13701 35831 ft 459 kts 335°
2026-04-26 05:08 45.12990 -122.17550 35832 ft 459 kts 335°
2026-04-26 05:09 45.15850 -122.19457 35832 ft 448 kts 335°
2026-04-26 05:09 45.18635 -122.21316 35751 ft 436 kts 335°
2026-04-26 05:09 45.21367 -122.23143 35378 ft 433 kts 335°
2026-04-26 05:09 45.24081 -122.24958 35003 ft 430 kts 335°
2026-04-26 05:10 45.26779 -122.26763 34627 ft 427 kts 335°
2026-04-26 05:10 45.29425 -122.28533 34262 ft 424 kts 335°
2026-04-26 05:10 45.32118 -122.30338 33891 ft 421 kts 335°
2026-04-26 05:10 45.34718 -122.32084 33535 ft 418 kts 335°
2026-04-26 05:11 45.37339 -122.33844 33178 ft 414 kts 335°
2026-04-26 05:11 45.39939 -122.35593 32827 ft 411 kts 335°
2026-04-26 05:11 45.42511 -122.37325 32479 ft 408 kts 335°
2026-04-26 05:11 45.45071 -122.39052 32132 ft 405 kts 335°
2026-04-26 05:12 45.47617 -122.40745 31786 ft 402 kts 336°
2026-04-26 05:12 45.50136 -122.42422 31441 ft 399 kts 335°
2026-04-26 05:12 45.52638 -122.44104 31102 ft 395 kts 335°
2026-04-26 05:12 45.55116 -122.45778 30767 ft 392 kts 335°
2026-04-26 05:13 45.57570 -122.47441 30432 ft 389 kts 335°
2026-04-26 05:13 45.60004 -122.49094 30097 ft 386 kts 335°
2026-04-26 05:13 45.62421 -122.50736 29758 ft 383 kts 335°
2026-04-26 05:13 45.64816 -122.52365 29403 ft 380 kts 335°
2026-04-26 05:14 45.67198 -122.53987 29036 ft 378 kts 335°
2026-04-26 05:14 45.69535 -122.55578 28672 ft 375 kts 335°
2026-04-26 05:14 45.71881 -122.57175 28306 ft 372 kts 335°
2026-04-26 05:14 45.74258 -122.58610 27938 ft 368 kts 342°
2026-04-26 05:15 45.76713 -122.59601 27572 ft 365 kts 347°
2026-04-26 05:15 45.79193 -122.60345 27207 ft 363 kts 350°
2026-04-26 05:15 45.81674 -122.60946 26842 ft 361 kts 351°
2026-04-26 05:15 45.84149 -122.61508 26481 ft 358 kts 351°
2026-04-26 05:16 45.86600 -122.62084 26122 ft 356 kts 351°
2026-04-26 05:16 45.89034 -122.62674 25764 ft 354 kts 351°
2026-04-26 05:16 45.91456 -122.63269 25403 ft 351 kts 351°
2026-04-26 05:16 45.93858 -122.63864 25046 ft 349 kts 351°
2026-04-26 05:17 45.96246 -122.64458 24685 ft 347 kts 351°
2026-04-26 05:17 45.98620 -122.65049 24328 ft 345 kts 350°
2026-04-26 05:17 46.00977 -122.65637 23975 ft 343 kts 351°
2026-04-26 05:17 46.03316 -122.66220 23632 ft 340 kts 351°
2026-04-26 05:18 46.05642 -122.66800 23285 ft 338 kts 351°
2026-04-26 05:18 46.07952 -122.67376 22938 ft 336 kts 351°
2026-04-26 05:18 46.10249 -122.67947 22591 ft 334 kts 351°
2026-04-26 05:18 46.12536 -122.68435 22246 ft 331 kts 352°
2026-04-26 05:19 46.14816 -122.68857 21902 ft 329 kts 353°
2026-04-26 05:19 46.17077 -122.69275 21560 ft 327 kts 353°
2026-04-26 05:19 46.19326 -122.69705 21215 ft 325 kts 352°
2026-04-26 05:19 46.21531 -122.70137 20876 ft 323 kts 352°
2026-04-26 05:20 46.23750 -122.70576 20534 ft 321 kts 352°
2026-04-26 05:20 46.25953 -122.71014 20192 ft 319 kts 352°
2026-04-26 05:20 46.28143 -122.71448 19853 ft 317 kts 352°
2026-04-26 05:20 46.30324 -122.71882 19513 ft 315 kts 352°
2026-04-26 05:21 46.32492 -122.72280 19175 ft 313 kts 354°
2026-04-26 05:21 46.34656 -122.72497 18838 ft 311 kts 357°
2026-04-26 05:21 46.36810 -122.72590 18502 ft 309 kts 359°
2026-04-26 05:21 46.38955 -122.72617 18166 ft 307 kts 359°
2026-04-26 05:22 46.41084 -122.72638 17832 ft 305 kts 359°
2026-04-26 05:22 46.43203 -122.72676 17500 ft 303 kts 359°
2026-04-26 05:22 46.45308 -122.72729 17238 ft 299 kts 359°
2026-04-26 05:22 46.47371 -122.72789 16969 ft 295 kts 358°
2026-04-26 05:23 46.49427 -122.72855 16640 ft 296 kts 358°
2026-04-26 05:23 46.51506 -122.72924 16310 ft 301 kts 358°
2026-04-26 05:23 46.53633 -122.72998 15972 ft 312 kts 359°
2026-04-26 05:23 46.55819 -122.73076 15623 ft 317 kts 359°
2026-04-26 05:24 46.58026 -122.73155 15267 ft 317 kts 359°
2026-04-26 05:24 46.60221 -122.73234 14916 ft 315 kts 359°
2026-04-26 05:24 46.62407 -122.73313 14563 ft 314 kts 359°
2026-04-26 05:24 46.64555 -122.73391 14217 ft 312 kts 359°
2026-04-26 05:25 46.66722 -122.73471 13869 ft 311 kts 359°
2026-04-26 05:25 46.68878 -122.73548 13522 ft 309 kts 359°
2026-04-26 05:25 46.71022 -122.73626 13179 ft 308 kts 359°
2026-04-26 05:25 46.73160 -122.73704 12837 ft 306 kts 359°
2026-04-26 05:26 46.75286 -122.73778 12499 ft 305 kts
2026-04-26 05:26 46.77368 -122.73455 12168 ft 300 kts 15°
2026-04-26 05:26 46.79267 -122.72275 12081 ft 293 kts 26°
2026-04-26 05:26 46.81054 -122.70885 11862 ft 291 kts 30°
2026-04-26 05:27 46.82755 -122.69201 11243 ft 299 kts 37°
2026-04-26 05:27 46.84363 -122.67208 10752 ft 304 kts 43°
2026-04-26 05:27 46.85798 -122.64982 10512 ft 298 kts 45°
2026-04-26 05:27 46.87266 -122.62858 10221 ft 295 kts 43°
2026-04-26 05:28 46.88713 -122.60868 10135 ft 285 kts 42°
2026-04-26 05:28 46.90142 -122.58942 10050 ft 275 kts 42°
2026-04-26 05:28 46.91524 -122.57076 9964 ft 265 kts 43°
2026-04-26 05:28 46.92820 -122.55170 9711 ft 263 kts 45°
2026-04-26 05:29 46.94072 -122.53227 9413 ft 262 kts 46°
2026-04-26 05:29 46.95322 -122.51295 9122 ft 261 kts 45°
2026-04-26 05:29 46.96578 -122.49384 8835 ft 260 kts 45°
2026-04-26 05:29 46.97896 -122.47572 8476 ft 261 kts 39°
2026-04-26 05:30 46.99359 -122.45996 8152 ft 261 kts 34°
2026-04-26 05:30 47.00895 -122.44572 7829 ft 261 kts 31°
2026-04-26 05:30 47.02431 -122.43173 7520 ft 260 kts 37°
2026-04-26 05:30 47.03573 -122.41131 7111 ft 262 kts 61°
2026-04-26 05:31 47.04299 -122.38694 6819 ft 259 kts 62°
2026-04-26 05:31 47.05399 -122.36635 6436 ft 257 kts 40°
2026-04-26 05:31 47.06813 -122.35053 6129 ft 255 kts 40°
2026-04-26 05:31 47.08090 -122.33330 6066 ft 252 kts 39°
2026-04-26 05:32 47.09619 -122.32094 6009 ft 252 kts 17°
2026-04-26 05:32 47.11345 -122.31653 5981 ft 250 kts
2026-04-26 05:32 47.13055 -122.31431 5927 ft 242 kts
2026-04-26 05:32 47.14691 -122.31358 5912 ft 227 kts
2026-04-26 05:33 47.16245 -122.31348 5714 ft 221 kts
2026-04-26 05:33 47.17774 -122.31343 5487 ft 216 kts
2026-04-26 05:33 47.19244 -122.31333 5259 ft 212 kts
2026-04-26 05:33 47.20695 -122.31323 5061 ft 205 kts
2026-04-26 05:34 47.22099 -122.31312 4862 ft 199 kts
2026-04-26 05:34 47.23477 -122.31300 4648 ft 195 kts
2026-04-26 05:34 47.24818 -122.31289 4436 ft 191 kts
2026-04-26 05:34 47.26149 -122.31277 4164 ft 191 kts
2026-04-26 05:35 47.27476 -122.31265 3885 ft 190 kts
2026-04-26 05:35 47.28799 -122.31254 3610 ft 190 kts
2026-04-26 05:35 47.30119 -122.31243 3334 ft 190 kts 360°
2026-04-26 05:35 47.31440 -122.31231 3055 ft 190 kts 360°
2026-04-26 05:36 47.32760 -122.31220 2778 ft 190 kts 360°
2026-04-26 05:36 47.34068 -122.31209 2516 ft 182 kts
2026-04-26 05:36 47.35296 -122.31198 2243 ft 170 kts
2026-04-26 05:36 47.36421 -122.31188 2002 ft 152 kts
2026-04-26 05:37 47.37455 -122.31179 1789 ft 146 kts
2026-04-26 05:37 47.38450 -122.31171 1578 ft 144 kts
2026-04-26 05:37 47.39462 -122.31179 1365 ft 146 kts
2026-04-26 05:37 47.40478 -122.31166 1123 ft 146 kts
2026-04-26 05:38 47.41485 -122.31144 910 ft 144 kts
2026-04-26 05:38 47.42490 -122.31139 719 ft 144 kts
2026-04-26 05:38 47.43495 -122.31125 522 ft 144 kts
2026-04-26 05:38 47.44469 -122.31116 448 ft 128 kts 359°
2026-04-26 05:39 47.45214 -122.31110 447 ft 85 kts
2026-04-26 05:39 47.45542 -122.31108 447 ft 59 kts
2026-04-26 05:39 47.45883 -122.31105 447 ft 36 kts
2026-04-26 05:39 47.46104 -122.31103 447 ft 16 kts
2026-04-26 05:40 47.46214 -122.31099 447 ft 17 kts 10°